STARLINK-32496, 62051

Orbit data source: Space-Track

STARLINK-32496, 62051 is a payload satellite owned by SpaceX/Seattle (US) in LEO that was launched on Thu, 21 Nov 2024 UTC via an FALCON 9 launch vehicle from the Air Force Eastern Test Range (AFETR). Payload-class satellites include a variety of spacecraft equipped with specific instruments for various scientific and technological missions. These include communications satellites like Starlink; space stations such as the ISS; scientific satellites like the Hubble; Earth observation satellites from companies like Planet Labs, Umbra, and HawkEye 360; GPS; miniature CubeSats for education and research; and military/defense satellites.

Loading next visibility...
Identifier
62051, 2024-216V
Orbit
LEO
Country
Flag of USUS
Related business
Manufacturer
SpaceX/Seattle
Mission
Operational Commercial Communications
Bus & Motor
STARLINK V2M, Unknown motor
Mass
730 kg wet, ~700 kg dry
Launch date (UTC)
2024-11-21 (2 years ago)
Launch vehicle
FALCON 9
Launch site
Air Force Eastern Test Range (AFETR)
Object type
Payload
Rocket body
Debris
Shape & HBR
Box + 2 Pan, 17.7 m
Radar Cross Section
33.884 m², Large (>1 m²)

Expand to show TLE details & history
Last TLE update: 22 hours ago

TLE from 22 hours ago
0 STARLINK-32496
1 62051U 24216V   26169.41039169  .00013549  00000-0  50086-3 0  9990
2 62051  43.0051  54.9339 0001656 276.9953  83.0710 15.27587787 89194
Epoch: 2026-06-18T09:50Z
TLE epoch observation values (Epoch: 2026-06-18T09:50:57.842Z)
Latitude
-0.00002°
Longitude
0.53875°
Altitude
482.665 km
Speed
7.626 km/s
True Right ascension
03h 39m 44s
True Declination
0° 00' 00"
Sunlit
Object was in daylight at epoch
Visualization orbit readout
Latitude
Unknown
Longitude
Unknown
Altitude
Unknown
Speed
Unknown
Apparent Right ascension
Unknown
Apparent Declination
Unknown
Sunlit
N/A
Visualization observer readout
Local Sidereal Time
18:29:11
Azimuth
Unknown
Elevation
Unknown
Doppler factor
Unknown
Orbital elements
Apogee altitude
486.107 km
Perigee altitude
483.834 km
Semi-major axis
6,863.107 km
Eccentricity
0.00017
Inclination
43.0051°
RAAN
54.9339°
Arg. of periapsis
276.9953°
True anomaly
83.08984°
Mean anomaly
83.071°
Eccentric anomaly
83.08042°
Mean motion
3.81735 °/min
Orbital period
94.31 mins
BSTAR
0.00050086
Loading maneuver chart data...
Computing Atmospheric mass density...
Loading historical data...
Loading historical data...
Loading historical data...
Loading historical data...
Loading historical data...
Loading historical data...
Loading historical data...

Documentation

Showing up to 5 results
|